This is the latest recevied weather packets stored in our database for station/object HS2XQB-3. If no packets are shown the sender has not sent any weather packets the latest 10 day(s).
| Time | Temp. | Humidity | Pressure | Rain* | Wind** | Luminosity | Snow |
|---|---|---|---|---|---|---|---|
| 1787945699 | 21.67° C | 42% | 1004 hPa | - | - | 0 W/m² | - |
| 1787943877 | 21.67° C | 42% | 1004 hPa | - | - | 0 W/m² | - |
| 1787942055 | 21.67° C | 42% | 1005 hPa | - | - | 0 W/m² | - |
| 1787940233 | 21.67° C | 42% | 1005 hPa | - | - | 0 W/m² | - |
| 1787938411 | 21.67° C | 42% | 1005 hPa | - | - | 0 W/m² | - |
| 1787936589 | 22.22° C | 42% | 1005 hPa | - | - | 0 W/m² | - |
| 1787934767 | 22.22° C | 42% | 1006 hPa | - | - | 0 W/m² | - |
| 1787932947 | 22.22° C | 41% | 1006 hPa | - | - | 0 W/m² | - |
| 1787931123 | 22.78° C | 42% | 1006 hPa | - | - | 0 W/m² | - |
| 1787929300 | 23.33° C | 42% | 1006 hPa | - | - | 0 W/m² | - |
| 1787927478 | 22.78° C | 42% | 1005 hPa | - | - | 0 W/m² | - |
| 1787925656 | 23.33° C | 41% | 1004 hPa | - | - | 0 W/m² | - |
| 1787923835 | 23.89° C | 42% | 1004 hPa | - | - | 0 W/m² | - |
| 1787922012 | 25° C | 47% | 1003 hPa | - | - | 0 W/m² | - |
| 1787920190 | 25.56° C | 51% | 1003 hPa | - | - | 0 W/m² | - |
| 1787918368 | 26.11° C | 51% | 1003 hPa | - | - | 0 W/m² | - |
| 1787916546 | 27.78° C | 58% | 1003 hPa | - | - | 0 W/m² | - |
| 1787914724 | 27.78° C | 60% | 1002 hPa | - | - | 0 W/m² | - |
| 1787912902 | 26.11° C | 41% | 1002 hPa | - | - | 0 W/m² | - |
| 1787911080 | 28.33° C | 43% | 1002 hPa | - | - | 0 W/m² | - |
| 1787909258 | 35° C | 55% | 1002 hPa | - | - | 0 W/m² | - |
| 1787907437 | 37.22° C | 53% | 1002 hPa | - | - | 0 W/m² | - |
| 1787905614 | 37.78° C | 52% | 1002 hPa | - | - | 0 W/m² | - |
| 1787903792 | 37.78° C | 51% | 1002 hPa | - | - | 0 W/m² | - |
| 1787901970 | 37.22° C | 53% | 1002 hPa | - | - | 0 W/m² | - |
* Rain since midnight (hover to see other rain measurements)
** Current wind speed in m/s (hover to see current wind gust speed)